Terminal Aerodrome Forecast
Issued by NWS Missoula, MT

Home | Current Version | Previous Version | Text Only | Print | Product List | Glossary On
Versions: 1 2 3 4 5 6 7 8 9 10 11 12 13 14
000
FTUS45 KMSO 311100
TAFGPI
TAF
KGPI 311120Z 3112/0112 34005KT P6SM FEW150
     FM312000 18007KT P6SM SCT090=

USA.gov is the U.S. government's official web portal to all federal, state and local government web resources and services.